Retour au catalogue

CZ-6A DEB

ActifSSO
NORAD 54982·DEBRIS·🇨🇳 China

Lancé Nov 11, 2022 depuis Taiyuan Satellite Launch Center

Loading…

Prochains Passages (prochaines 24 heures)

TLE

FraisSource: Space-Track

Époque: Sep 13, 2026, 00:41 UTC

1 54982U 22151TX  26256.02851865  .00004827  00000-0  11282-2 0  9992
2 54982  98.5796 287.5839 0054896 105.4548 255.2720 14.54215640200833

Suivez CZ-6A DEB en temps réel avec AllMySat

Download on the App Store